Погода в Двинском

Россия / Архангельская область     62°09′17″N   45°07′04″E
темп.,
°C
ветер,
м/с
пор.,
м/с
влажн.,
%
обл.,
%
осадки,
мм/ч
давл.,
гПа
погр.,
м
5 августа, чт
чт500:00+10зюз25881 0.0 101282
03:00+8з22850 0.0 101428
06:00+11зсз38720 0.0 1015281
09:00+15з48525 0.0 10161171
12:00+17зсз564690 0.0 10161845
15:00+18зсз3841100 0.0 10171950
18:00+17зсз135348 0.0 1018432
21:00+11сз11726 0.0 101810
6 августа, пт
пт600:00+10ссв228062 0.0 101934
03:00+9св258865 0.0 1020118
06:00+11св237756 0.0 1020176
09:00+16св235475 0.0 1020794
12:00+19ссв1240100 0.0 10201516
15:00+20ссв113745 0.0 10202088
18:00+19св234579 0.0 1020400
21:00+14всв395981 0.0 1021420
7 августа, сб
сб700:00+10всв277547 0.0 1022143
03:00+8всв248114 0.0 102379
06:00+11всв256921 0.0 1023171
09:00+17всв34465 0.0 10231139
12:00+20всв34375 0.0 10221627
15:00+21св3334100 0.0 10211960
18:00+19св2541100 0.0 1021615
21:00+13всв2659100 0.0 1022117
8 августа, вс
вс800:00+11всв2768100 0.0 1022134
03:00+9в277685 0.0 1023142
06:00+12в3969100 0.0 1023273
09:00+17вюв4652100 0.0 1023690
12:00+19вюв3545100 0.0 10231199
15:00+17ю355798 0.0 1023702
18:00+12ю2689100 0.3 1023261
21:00+11вюв1797100 1.4 1023232
9 августа, пн
пн900:00+12в2994100 0.6 1022222
03:00+11в41196100 11.6 1018550
06:00+11в41095100 0.3 1017489
09:00+12в3895100 0.5 1017481
12:00+12всв2696100 0.3 1017391
15:00+13всв2696100 0.4 1018357
18:00+13св3797100 0.0 1019383
21:00+12св2697100 0.1 1019294